User: anonymous
Location: NJAA Observatory
(40.6819°N, 74.8979°W)
Time: 11:08:13
(UTC-04:00)
Language:

Iridium 4 - Orbit

View from above orbital plane
View from above orbital plane
View from above satellite
View from above satellite

Ground track
Ground track

The orbit data is extracted from the following two-line orbital elements,

1 24796U 97020E   14293.36482027  .00000474  00000-0  16038-3 0   534
2 24796 086.3993 004.2143 0002264 106.2319 300.4745 14.34726694914078
Epoch (UTC): 20 October 2014 08:45:20
Eccentricity: 0.0002264
inclination: 86.3993°
perigee height: 774 km
apogee height: 777 km
right ascension of ascending node: 4.2143°
argument of perigee: 106.2319°
revolutions per day: 14.34726694
mean anomaly at epoch: 300.4745°
orbit number at epoch: 91407

The dashed part of the orbit path shows where the satellite is in the earth's shadow,  

DLR